[[{"header":{"parameterUnit":"m.s-1","parameterCategory":1,"la1":30.2992,"la2":30.254,"lo1":-89.0895,"lo2":-89.0443,"dy":0.0025,"dx":0.0025,"nx":19,"ny":19,"refTime":"2026-05-13T21:00:00:Z","depth":0,"parameterNumber":2,"parameterNumberName":"U-component_of_WINDS"},"data":[0,0,0,1.4425,1.4426,1.4462,1.4462,1.4512,1.4512,0,0,0,0,0,0,0,0,0,0,0,1.4416,1.4417,1.4425,1.4426,1.4462,1.4462,1.4512,1.4512,0,0,0,0,0,0,0,0,0,0,0,1.4416,1.4416,1.4417,1.4426,1.4462,1.4462,1.4512,1.4483,0,0,0,0,0,0,0,0,0,0,1.4448,1.444,1.4416,1.4417,1.4427,1.4462,1.4462,1.4482,1.4485,1.4497,0,1.4507,0,1.4511,1.4516,1.4516,0,0,0,1.4425,1.4438,1.4446,1.4417,1.4427,1.4462,1.4446,1.4484,1.4487,1.4501,1.4508,1.451,1.4512,1.4516,1.4516,1.4589,1.459,0,0,1.4423,1.4423,1.4444,1.4449,1.4443,1.4444,1.4447,1.4486,1.4493,1.4508,1.4511,1.4512,1.4516,1.4517,1.4589,1.459,0,0,0,1.4418,1.4422,1.4429,1.4447,1.4453,1.4446,1.4448,1.4492,1.4494,1.4511,1.4513,1.4517,1.4517,1.4589,1.4589,1.461,0,0,0,1.4417,1.4419,1.4429,1.4429,1.4453,1.4473,1.4453,1.4491,1.4496,1.4513,1.4517,1.4518,1.4588,1.4589,1.4609,1.462,0,0,0,1.4413,1.4419,1.4425,1.4429,1.4445,1.4472,1.4477,1.4492,1.4497,1.4516,1.4518,1.4588,1.4589,1.4607,1.4617,1.464,0,0,0,1.4409,1.4441,1.4425,1.4462,1.4445,1.4485,1.4476,1.4506,1.4525,1.4517,1.4588,1.4589,1.4607,1.4616,1.4638,1.4658,1.4667,0,0,1.445,1.4446,1.4468,1.4454,1.4498,1.4479,1.4526,1.4543,1.4544,1.4574,1.4576,1.4609,1.4617,1.4639,1.4715,1.4721,0,0,0,1.4481,1.4497,1.4508,1.4527,1.4541,1.4555,1.4564,1.4571,1.4597,1.4559,1.4623,1.4628,1.4641,1.4651,1.4656,1.4668,1.4594,1.4594,1.4593,1.4539,1.454,1.4576,1.4582,1.46,1.4611,1.4626,1.4637,1.4631,1.4647,1.4655,1.4701,1.4712,1.4717,1.4728,1.4666,1.4666,1.4666,1.4666,1.4599,1.4621,1.4615,1.4648,1.465,1.4677,1.469,1.4686,1.4712,1.4694,1.4705,1.4685,1.4724,1.4734,1.4668,1.4668,1.4668,1.4667,1.4667,1.4636,1.4647,1.4656,1.4684,1.4706,1.4711,1.4738,1.4738,1.4738,1.4749,1.4759,1.4759,1.4759,1.4754,1.4754,1.4754,1.4755,1.4755,1.4755,1.4671,1.468,1.4703,1.4722,1.4736,1.4753,1.4766,1.4779,1.4793,1.4791,1.4791,1.4785,1.4728,1.4713,1.4757,1.4757,1.4756,1.4756,1.4756,1.4731,1.4718,1.4753,1.4766,1.479,1.4813,1.4814,1.4841,1.4851,1.4865,1.4857,1.4815,1.481,1.4806,1.4794,1.4856,1.4856,1.4856,1.4856,1.4763,1.4761,1.4798,1.4819,1.4841,1.4845,1.4885,1.4897,1.4906,1.4913,1.4905,1.4889,1.4884,1.4883,1.4877,1.4866,1.4945,1.4945,1.4945,1.48,1.4801,1.4834,1.4844,1.4864,1.4881,1.4919,1.4945,1.4953,1.4948,1.4919,1.4915,1.489,1.4882,1.4875,1.4865,1.4845,0,0]},{"header":{"parameterUnit":"m.s-1","parameterCategory":1,"la1":30.2992,"la2":30.254,"lo1":-89.0895,"lo2":-89.0443,"dy":0.0025,"dx":0.0025,"nx":19,"ny":19,"refTime":"2026-05-13T21:00:00:Z","depth":0,"parameterNumber":3,"parameterNumberName":"V-component_of_WINDS"},"data":[0,0,0,-1.7686,-1.7688,-1.7808,-1.7809,-1.7959,-1.796,0,0,0,0,0,0,0,0,0,0,0,-1.7647,-1.7648,-1.7685,-1.7688,-1.7808,-1.7809,-1.7959,-1.796,0,0,0,0,0,0,0,0,0,0,0,-1.7646,-1.7647,-1.7649,-1.7689,-1.7808,-1.7809,-1.7958,-1.7869,0,0,0,0,0,0,0,0,0,0,-1.7753,-1.7714,-1.7647,-1.7649,-1.7689,-1.7808,-1.7809,-1.7865,-1.7875,-1.7903,0,-1.7926,0,-1.7945,-1.797,-1.797,0,0,0,-1.7691,-1.7706,-1.7741,-1.7649,-1.769,-1.7808,-1.7755,-1.787,-1.7882,-1.7916,-1.7928,-1.7934,-1.7948,-1.7971,-1.7972,-1.8122,-1.8123,0,0,-1.7684,-1.7667,-1.7733,-1.7748,-1.7728,-1.7751,-1.7759,-1.7877,-1.789,-1.7929,-1.7937,-1.795,-1.7972,-1.7973,-1.8122,-1.8122,0,0,0,-1.7663,-1.7662,-1.7695,-1.7742,-1.7764,-1.7754,-1.7763,-1.7885,-1.7897,-1.7939,-1.7952,-1.7973,-1.7974,-1.8121,-1.8122,-1.8134,0,0,0,-1.7659,-1.765,-1.7692,-1.7682,-1.7761,-1.7826,-1.7768,-1.7888,-1.7902,-1.7951,-1.7973,-1.7976,-1.8121,-1.8122,-1.8132,-1.8143,0,0,0,-1.764,-1.7648,-1.7664,-1.7681,-1.7732,-1.7824,-1.7843,-1.7892,-1.791,-1.7971,-1.7976,-1.812,-1.8121,-1.8131,-1.814,-1.8177,0,0,0,-1.7615,-1.7673,-1.7664,-1.7735,-1.7731,-1.783,-1.7842,-1.7917,-1.7971,-1.7973,-1.8121,-1.8122,-1.813,-1.8139,-1.8175,-1.8205,-1.8216,0,0,-1.7679,-1.7681,-1.7724,-1.7719,-1.7815,-1.7813,-1.7912,-1.7977,-1.7999,-1.808,-1.8084,-1.8133,-1.814,-1.8177,-1.8282,-1.829,0,0,0,-1.7738,-1.7769,-1.7798,-1.7848,-1.7899,-1.7944,-1.7995,-1.802,-1.8089,-1.8037,-1.8157,-1.8162,-1.8184,-1.8199,-1.8206,-1.8227,-1.8128,-1.8128,-1.8128,-1.7805,-1.783,-1.7903,-1.7942,-1.799,-1.8043,-1.8084,-1.8126,-1.8137,-1.8165,-1.8189,-1.825,-1.8266,-1.8272,-1.8293,-1.8207,-1.8207,-1.8207,-1.8207,-1.7902,-1.795,-1.7963,-1.8038,-1.8064,-1.8128,-1.8181,-1.8187,-1.8251,-1.8233,-1.8254,-1.8233,-1.828,-1.83,-1.8208,-1.8208,-1.8208,-1.8207,-1.8207,-1.7949,-1.7975,-1.8004,-1.8078,-1.8133,-1.8171,-1.8231,-1.8253,-1.8274,-1.8294,-1.8322,-1.8322,-1.8325,-1.8306,-1.8306,-1.8306,-1.8307,-1.8307,-1.8307,-1.7985,-1.8017,-1.8065,-1.8124,-1.8159,-1.8207,-1.8261,-1.8297,-1.8341,-1.8352,-1.8353,-1.8361,-1.828,-1.8259,-1.831,-1.831,-1.8309,-1.8309,-1.8309,-1.8074,-1.8058,-1.8131,-1.8166,-1.8238,-1.8291,-1.8318,-1.8388,-1.842,-1.8449,-1.8454,-1.839,-1.8393,-1.8388,-1.8371,-1.8448,-1.8448,-1.8448,-1.8448,-1.8113,-1.8117,-1.8197,-1.8252,-1.8307,-1.8339,-1.8423,-1.8466,-1.8508,-1.853,-1.8522,-1.8501,-1.8495,-1.8502,-1.8494,-1.8478,-1.8581,-1.8581,-1.8581,-1.8169,-1.8179,-1.8246,-1.8286,-1.8344,-1.8393,-1.8473,-1.8535,-1.858,-1.8587,-1.8547,-1.8542,-1.8509,-1.8497,-1.8502,-1.849,-1.8461,0,0]}]]